Observations for Trim Market St
| Time | AQI | Temp °C | Hum % | Pres Pa | CO μg/m³ | H₂S μg/m³ | NO μg/m³ | NO₂ μg/m³ | O₃ μg/m³ | SO₂ μg/m³ | PM1 μg/m³ | PM2.5 μg/m³ | PM10 μg/m³ |
|---|---|---|---|---|---|---|---|---|---|---|---|---|---|
| Saturday 11 July 2026 | |||||||||||||
| 00:10 | 1 | 19.6 | 68 | 56,316 | 0 | 0 | 0 | 2.65 | 15.32 | 0 | 0.71 | 3.15 | 4.97 |
| 00:09 | 1 | 19.6 | 68 | 56,329 | 0 | 0 | 0 | 6.56 | 11.85 | 0 | 0.71 | 2.18 | 3.69 |
| 00:08 | 1 | 19.6 | 68 | 56,353 | 0 | 0 | 0 | 5.76 | 10.24 | 0 | 0.71 | 3.16 | 4.97 |
| 00:07 | 1 | 19.6 | 68 | 56,377 | 0 | 0 | 0 | 5.16 | 16.93 | 0 | 0.71 | 2.18 | 3.69 |
| 00:06 | 1 | 19.6 | 68 | 56,389 | 0 | 0 | 0 | 2.66 | 9.77 | 0 | 0.71 | 3.16 | 4.97 |
| 00:05 | 1 | 19.7 | 68 | 56,406 | 0 | 0 | 0 | 3.05 | 3.93 | 0 | 0 | 1.69 | 3.05 |
| 00:04 | 1 | 19.7 | 68 | 56,429 | 0 | 0 | 0 | 12.36 | 23.56 | 0 | 0 | 1.7 | 3.68 |
| 00:03 | 1 | 19.7 | 68 | 56,446 | 0 | 0 | 0 | 2.56 | 16.7 | 0 | 1.43 | 2.19 | 3.68 |
| Friday 10 July 2026 | |||||||||||||
| 23:59 | 1 | 19.7 | 68 | 56,450 | 0 | 0 | 0 | 5.16 | 11.31 | 0 | 0.71 | 2.19 | 3.68 |
| 23:58 | 1 | 19.8 | 68 | 56,451 | 0 | 0 | 0 | 3.03 | 14.46 | 0 | 0 | 2.19 | 3.68 |
| 23:54 | 1 | 19.8 | 68 | 56,459 | 0 | 0 | 0 | 5.05 | 13.2 | 0 | 0.71 | 2.68 | 4.96 |
| 23:50 | 1 | 19.9 | 67 | 56,520 | 0 | 0 | 0 | 5.83 | 8.32 | 0 | 0.71 | 1.71 | 3.03 |
| 23:45 | 1 | 20 | 67 | 56,650 | 0 | 0 | 0 | 5.94 | 17.04 | 0 | 0.71 | 2.7 | 4.31 |
| 23:43 | 1 | 20 | 67 | 56,707 | 0 | 0 | 0 | 8.66 | 18.17 | 0 | 1.43 | 2.71 | 4.95 |
| 23:42 | 1 | 20 | 67 | 56,741 | 0 | 0 | 0 | 9.27 | 19.85 | 0 | 0.71 | 2.22 | 3.65 |
| 23:41 | 1 | 20 | 67 | 56,773 | 0 | 0 | 0 | 7.58 | 15.92 | 0 | 0.71 | 2.23 | 3.65 |
| 23:40 | 1 | 20.1 | 67 | 56,811 | 0 | 0 | 0 | 7.07 | 18.88 | 0 | 0 | 2.23 | 3.65 |
| 23:38 | 1 | 20.1 | 66 | 56,868 | 0 | 0 | 0 | 9.49 | 15.92 | 0 | 0 | 2.24 | 3.64 |
| 23:37 | 1 | 20.1 | 66 | 56,899 | 0 | 0 | 0 | 3.19 | 3.86 | 0 | 0 | 2.24 | 3.64 |
| 23:35 | 1 | 20.2 | 66 | 56,946 | 0 | 0 | 0 | 4.4 | 11.01 | 0 | 0 | 1.76 | 2.98 |